• In Hungary
  • List of Countries
  • For 7 days
  • Water Temperature
  • Satellite Maps
  • Weather Map
  • News
  • Weather Widgets
  • user-avatar
    Login

    Hourly Weather Santa Elena de Uairén

    Today, 22 September, Saturday

    Time Temperature Precipitation Wind Pressure Humidity
    00:00 +22°C° 0.1 mm 1 mps 681 mmHg 86%
    01:00 +22°C° 0.1 mm 1 mps 681 mmHg 87%
    02:00 +22°C° 0.1 mm 1 mps 681 mmHg 88%
    03:00 +21°C° 0 mm 1 mps 680 mmHg 88%
    04:00 +21°C° 0 mm 1 mps 680 mmHg 87%
    05:00 +21°C° 0 mm 1 mps 680 mmHg 87%
    06:00 +22°C° 0 mm 1 mps 681 mmHg 82%
    07:00 +24°C° 0 mm 1 mps 682 mmHg 77%
    08:00 +25°C° 0 mm 1 mps 682 mmHg 72%
    09:00 +26°C° 0 mm 2 mps 682 mmHg 63%
    10:00 +28°C° 0 mm 3 mps 683 mmHg 54%
    11:00 +30°C° 0 mm 3 mps 683 mmHg 44%
    12:00 +30°C° 0 mm 3 mps 682 mmHg 43%
    13:00 +31°C° 0 mm 3 mps 682 mmHg 41%
    14:00 +31°C° 0 mm 3 mps 681 mmHg 39%
    15:00 +30°C° 0 mm 2 mps 681 mmHg 42%
    16:00 +30°C° 0 mm 2 mps 680 mmHg 46%
    17:00 +29°C° 0 mm 2 mps 680 mmHg 49%
    18:00 +27°C° 0 mm 1 mps 680 mmHg 54%
    19:00 +26°C° 0 mm 1 mps 680 mmHg 58%
    20:00 +24°C° 0 mm 1 mps 680 mmHg 63%
    21:00 +24°C° 0 mm 1 mps 681 mmHg 64%
    22:00 +23°C° 0 mm 1 mps 681 mmHg 65%
    23:00 +23°C° 0 mm 1 mps 681 mmHg 66%

    Tomorrow, 23 September, Sunday

    Time Temperature Precipitation Wind Pressure Humidity
    00:00 +23°C° 0 mm 1 mps 681 mmHg 68%
    01:00 +22°C° 0 mm 1 mps 680 mmHg 70%
    02:00 +22°C° 0 mm 1 mps 680 mmHg 73%
    03:00 +22°C° 0 mm 1 mps 680 mmHg 74%
    04:00 +22°C° 0 mm 1 mps 680 mmHg 75%
    05:00 +21°C° 0 mm 1 mps 680 mmHg 77%
    06:00 +23°C° 0 mm 1 mps 680 mmHg 70%
    07:00 +25°C° 0 mm 1 mps 681 mmHg 64%
    08:00 +27°C° 0 mm 1 mps 682 mmHg 57%
    09:00 +28°C° 0 mm 2 mps 682 mmHg 52%
    10:00 +30°C° 0 mm 2 mps 682 mmHg 47%
    11:00 +31°C° 0 mm 3 mps 683 mmHg 42%
    12:00 +31°C° 0 mm 3 mps 682 mmHg 43%
    13:00 +31°C° 0 mm 3 mps 681 mmHg 44%
    14:00 +31°C° 0 mm 3 mps 680 mmHg 46%
    15:00 +30°C° 0.2 mm 2 mps 680 mmHg 51%
    16:00 +29°C° 0.2 mm 2 mps 680 mmHg 56%
    17:00 +28°C° 0.2 mm 2 mps 679 mmHg 61%
    18:00 +27°C° 1.2 mm 2 mps 680 mmHg 67%
    19:00 +25°C° 1.2 mm 1 mps 680 mmHg 72%
    20:00 +24°C° 1.2 mm 1 mps 680 mmHg 77%
    21:00 +23°C° 1 mm 1 mps 681 mmHg 79%
    22:00 +23°C° 1 mm 1 mps 681 mmHg 81%
    23:00 +22°C° 1 mm 1 mps 681 mmHg 83%

    Day after tomorrow, 24 September, Monday

    Time Temperature Precipitation Wind Pressure Humidity
    00:00 +22°C° 0.1 mm 1 mps 681 mmHg 83%
    01:00 +22°C° 0.1 mm 1 mps 681 mmHg 83%
    02:00 +22°C° 0.1 mm 1 mps 680 mmHg 83%
    03:00 +21°C° 0 mm 1 mps 680 mmHg 83%
    04:00 +21°C° 0 mm 1 mps 680 mmHg 83%
    05:00 +21°C° 0 mm 1 mps 680 mmHg 83%
    06:00 +23°C° 0 mm 1 mps 681 mmHg 78%
    07:00 +24°C° 0 mm 1 mps 682 mmHg 73%
    08:00 +26°C° 0 mm 1 mps 683 mmHg 68%
    09:00 +27°C° 0.2 mm 2 mps 683 mmHg 63%
    10:00 +29°C° 0.2 mm 2 mps 683 mmHg 58%
    11:00 +30°C° 0.2 mm 3 mps 683 mmHg 52%
    12:00 +30°C° 0.7 mm 3 mps 682 mmHg 53%
    13:00 +30°C° 0.7 mm 2 mps 682 mmHg 54%
    14:00 +30°C° 0.7 mm 2 mps 681 mmHg 56%
    15:00 +30°C° 0.7 mm 2 mps 681 mmHg 59%
    16:00 +29°C° 0.7 mm 2 mps 680 mmHg 63%
    17:00 +28°C° 0.7 mm 1 mps 680 mmHg 67%
    18:00 +26°C° 1.5 mm 2 mps 680 mmHg 72%
    19:00 +25°C° 1.5 mm 2 mps 681 mmHg 77%
    20:00 +23°C° 1.5 mm 2 mps 681 mmHg 82%
    21:00 +23°C° 0.3 mm 2 mps 681 mmHg 82%
    22:00 +23°C° 0.3 mm 2 mps 681 mmHg 83%
    23:00 +21°C° 0.3 mm 2 mps 681 mmHg 84%

    25 September, Tuesday

    Time Temperature Precipitation Wind Pressure Humidity
    00:00 +21°C° 0 mm 2 mps 681 mmHg 84%
    01:00 +21°C° 0 mm 2 mps 681 mmHg 84%
    02:00 +20°C° 0 mm 2 mps 680 mmHg 84%
    03:00 +20°C° 0 mm 2 mps 680 mmHg 84%
    04:00 +20°C° 0 mm 2 mps 680 mmHg 84%
    05:00 +20°C° 0 mm 2 mps 680 mmHg 84%
    06:00 +21°C° 0 mm 2 mps 681 mmHg 79%
    07:00 +24°C° 0 mm 2 mps 682 mmHg 74%
    08:00 +25°C° 0 mm 2 mps 682 mmHg 69%
    09:00 +27°C° 0 mm 2 mps 683 mmHg 60%
    10:00 +30°C° 0 mm 2 mps 683 mmHg 51%
    11:00 +32°C° 0 mm 2 mps 683 mmHg 43%
    12:00 +31°C° 0.1 mm 2 mps 682 mmHg 45%
    13:00 +31°C° 0.1 mm 2 mps 681 mmHg 47%
    14:00 +30°C° 0.1 mm 2 mps 680 mmHg 50%
    15:00 +29°C° 0.3 mm 2 mps 680 mmHg 55%
    16:00 +29°C° 0.3 mm 2 mps 679 mmHg 60%
    17:00 +28°C° 0.3 mm 1 mps 679 mmHg 65%
    18:00 +26°C° 1.7 mm 1 mps 680 mmHg 70%
    19:00 +25°C° 1.7 mm 1 mps 680 mmHg 75%
    20:00 +24°C° 1.7 mm 1 mps 680 mmHg 80%
    21:00 +23°C° 0.6 mm 1 mps 680 mmHg 81%
    22:00 +23°C° 0.6 mm 1 mps 680 mmHg 82%
    23:00 +23°C° 0.6 mm 1 mps 681 mmHg 84%

    26 September, Wednesday

    Time Temperature Precipitation Wind Pressure Humidity
    00:00 +22°C° 0.1 mm 1 mps 680 mmHg 85%
    01:00 +21°C° 0.1 mm 2 mps 680 mmHg 87%
    02:00 +21°C° 0.1 mm 2 mps 679 mmHg 88%
    03:00 +20°C° 0 mm 2 mps 679 mmHg 88%
    04:00 +21°C° 0 mm 1 mps 679 mmHg 89%
    05:00 +21°C° 0 mm 1 mps 679 mmHg 89%
    06:00 +23°C° 0 mm 1 mps 680 mmHg 84%
    07:00 +24°C° 0 mm 1 mps 681 mmHg 79%
    08:00 +25°C° 0 mm 1 mps 681 mmHg 74%
    09:00 +28°C° 0 mm 1 mps 682 mmHg 64%
    10:00 +30°C° 0 mm 1 mps 682 mmHg 53%
    11:00 +33°C° 0 mm 1 mps 682 mmHg 43%
    12:00 +32°C° 0 mm 1 mps 681 mmHg 44%
    13:00 +31°C° 0 mm 2 mps 680 mmHg 46%
    14:00 +31°C° 0 mm 2 mps 679 mmHg 48%
    15:00 +30°C° 0.7 mm 2 mps 679 mmHg 55%
    16:00 +29°C° 0.7 mm 2 mps 679 mmHg 62%
    17:00 +28°C° 0.7 mm 2 mps 678 mmHg 69%
    18:00 +26°C° 1.9 mm 2 mps 679 mmHg 74%
    19:00 +25°C° 1.9 mm 1 mps 679 mmHg 78%
    20:00 +24°C° 1.9 mm 1 mps 680 mmHg 83%
    21:00 +23°C° 2 mm 1 mps 680 mmHg 84%
    22:00 +23°C° 2 mm 1 mps 680 mmHg 86%
    23:00 +23°C° 2 mm 1 mps 680 mmHg 87%

    27 September, Thursday

    Time Temperature Precipitation Wind Pressure Humidity
    00:00 +23°C° 1.2 mm 1 mps 680 mmHg 87%
    01:00 +21°C° 1.2 mm 0 mps 679 mmHg 88%
    02:00 +20°C° 1.2 mm 0 mps 679 mmHg 88%
    03:00 +20°C° 1.6 mm 0 mps 679 mmHg 88%
    04:00 +20°C° 1.6 mm 0 mps 679 mmHg 89%
    05:00 +20°C° 1.6 mm 0 mps 679 mmHg 89%
    06:00 +21°C° 0.6 mm 0 mps 680 mmHg 86%
    07:00 +22°C° 0.6 mm 0 mps 681 mmHg 83%
    08:00 +23°C° 0.6 mm 0 mps 682 mmHg 80%
    09:00 +26°C° 0.8 mm 1 mps 682 mmHg 75%
    10:00 +27°C° 0.8 mm 1 mps 682 mmHg 70%
    11:00 +29°C° 0.8 mm 1 mps 682 mmHg 65%
    12:00 +29°C° 0.9 mm 2 mps 681 mmHg 65%
    13:00 +29°C° 0.9 mm 2 mps 680 mmHg 66%
    14:00 +29°C° 0.9 mm 2 mps 680 mmHg 66%
    15:00 +28°C° 1.5 mm 2 mps 679 mmHg 71%
    16:00 +27°C° 1.5 mm 2 mps 679 mmHg 75%
    17:00 +26°C° 1.5 mm 2 mps 679 mmHg 80%
    18:00 +25°C° 1.6 mm 2 mps 680 mmHg 82%
    19:00 +24°C° 1.6 mm 1 mps 680 mmHg 85%
    20:00 +24°C° 1.6 mm 1 mps 680 mmHg 88%
    21:00 +23°C° 1.4 mm 1 mps 681 mmHg 88%
    22:00 +23°C° 1.4 mm 1 mps 681 mmHg 89%
    23:00 +23°C° 1.4 mm 1 mps 681 mmHg 90%
    Show more